Fergus Falls, MN

11:41 AM CDT on September 26, 2017 (GMT -0500)
Fergus Falls Municipal-Mickelson

Weather History for KFFM - September, 2013

Change the Weather History Date:

Monday, September 30, 2013

  Actual Average Record
Temperature  
Mean Temperature 63 °F -  
Max Temperature 75 °F 64 °F 84 °F (2012)
Min Temperature 51 °F 40 °F 26 °F (1972)
Degree Days  
Heating Degree Days 2    
Growing Degree Days 13 (Base 50)    
Moisture  
Dew Point 47 °F    
Average Humidity 54    
Maximum Humidity 77    
Minimum Humidity 34    
Precipitation  
Precipitation 0.00 in - - ()
Sea Level Pressure  
Sea Level Pressure 29.55 in    
Wind  
Wind Speed 9 mph (SSE)    
Max Wind Speed 16 mph    
Max Gust Speed 23 mph    
Visibility 10 miles    
Events      
Averages and records for this station are not official NWS values.
T = Trace of Precipitation, MM = Missing Value Source: NWS Daily Summary

Daily Weather History Graph

Daily Weather History Graph

Search for Another Location

Airport or City:

Trip Planner

Search our weather history database for the weather conditions in past years. The results will help you decide how hot, cold, wet, or windy it might be!

Date:

Astronomy

Sep. 30, 2013 Rise Set
Actual Time 7:22 AM CDT 7:05 PM CDT
Civil Twilight 6:52 AM CDT 7:35 PM CDT
Nautical Twilight 6:17 AM CDT 8:10 PM CDT
Astronomical Twilight 5:41 AM CDT 8:46 PM CDT
Moon 2:47 AM CDT (9/30) 4:48 PM CDT (9/30)
Length of Visible Light 12h 43m
Length of Day
11h 43m
Waning Crescent, 19% of the Moon is Illuminated
Sep 30
Waning Crescent
Oct 4
New
Oct 11
First Quarter
Oct 18
Full
Oct 26
Last Quarter

Hourly Weather History & Observations

Time (CDT) Temp. Dew Point Humidity Pressure Visibility Wind Dir Wind Speed Gust Speed Precip Events Conditions
12:13 AM 64.4 °F 44.6 °F 49% 29.57 in 10.0 mi South 15.0 mph - N/A   Clear
12:33 AM 64.4 °F 44.6 °F 49% 29.57 in 10.0 mi South 16.1 mph 23.0 mph N/A   Clear
12:53 AM 64.4 °F 44.6 °F 49% 29.58 in 10.0 mi South 15.0 mph - N/A   Clear
1:13 AM 64.4 °F 44.6 °F 49% 29.57 in 10.0 mi South 15.0 mph - N/A   Clear
1:33 AM 62.6 °F 44.6 °F 52% 29.58 in 10.0 mi South 13.8 mph - N/A   Clear
1:53 AM 62.6 °F 44.6 °F 52% 29.58 in 10.0 mi South 12.7 mph 17.3 mph N/A   Clear
2:13 AM 62.6 °F 44.6 °F 52% 29.58 in 10.0 mi South 12.7 mph - N/A   Clear
2:33 AM 62.6 °F 44.6 °F 52% 29.57 in 10.0 mi South 12.7 mph - N/A   Clear
2:53 AM 62.6 °F 44.6 °F 52% 29.57 in 10.0 mi South 11.5 mph - N/A   Clear
3:13 AM 60.8 °F 44.6 °F 55% 29.57 in 10.0 mi South 9.2 mph - N/A   Clear
3:33 AM 59.0 °F 44.6 °F 59% 29.57 in 10.0 mi South 9.2 mph - N/A   Clear
3:53 AM 57.2 °F 44.6 °F 63% 29.57 in 10.0 mi South 8.1 mph - N/A   Clear
4:13 AM 57.2 °F 44.6 °F 63% 29.57 in 10.0 mi SSE 8.1 mph - N/A   Clear
4:33 AM 55.4 °F 44.6 °F 67% 29.58 in 10.0 mi SSE 8.1 mph - N/A   Clear
4:53 AM 55.4 °F 44.6 °F 67% 29.58 in 10.0 mi SSE 6.9 mph - N/A   Clear
5:13 AM 53.6 °F 44.6 °F 72% 29.57 in 10.0 mi SSE 6.9 mph - N/A   Clear
5:33 AM 53.6 °F 44.6 °F 72% 29.57 in 10.0 mi SSE 8.1 mph - N/A   Clear
5:52 AM 53.6 °F 44.6 °F 72% 29.57 in 10.0 mi SSE 6.9 mph - N/A   Clear
6:13 AM 51.8 °F 44.6 °F 76% 29.57 in 10.0 mi SSE 6.9 mph - N/A   Clear
6:33 AM 51.8 °F 44.6 °F 76% 29.57 in 10.0 mi SSE 6.9 mph - N/A   Clear
6:52 AM 51.8 °F 44.6 °F 76% 29.57 in 10.0 mi South 6.9 mph - N/A   Clear
7:13 AM 51.8 °F 44.6 °F 76% 29.58 in 10.0 mi South 5.8 mph - N/A   Clear
7:33 AM 51.8 °F 44.6 °F 76% 29.58 in 10.0 mi South 5.8 mph - N/A   Clear
7:52 AM 51.8 °F 44.6 °F 76% 29.58 in 10.0 mi SSE 6.9 mph - N/A   Clear
8:13 AM 53.6 °F 46.4 °F 77% 29.57 in 10.0 mi SSE 6.9 mph - N/A   Clear
8:33 AM 53.6 °F 46.4 °F 77% 29.58 in 10.0 mi South 5.8 mph - N/A   Clear
8:53 AM 55.4 °F 46.4 °F 72% 29.58 in 10.0 mi South 5.8 mph - N/A   Clear
9:13 AM 57.2 °F 46.4 °F 67% 29.58 in 10.0 mi South 6.9 mph - N/A   Clear
9:33 AM 59.0 °F 46.4 °F 63% 29.57 in 10.0 mi SSW 5.8 mph - N/A   Clear
9:53 AM 60.8 °F 46.4 °F 59% 29.57 in 10.0 mi South 5.8 mph - N/A   Clear
10:13 AM 62.6 °F 46.4 °F 55% 29.58 in 10.0 mi SSW 5.8 mph - N/A   Clear
10:33 AM 62.6 °F 46.4 °F 55% 29.57 in 10.0 mi South 6.9 mph - N/A   Clear
10:53 AM 64.4 °F 46.4 °F 52% 29.58 in 10.0 mi WSW 4.6 mph - N/A   Clear
11:13 AM 64.4 °F 46.4 °F 52% 29.58 in 10.0 mi SW 4.6 mph - N/A   Clear
11:33 AM 66.2 °F 48.2 °F 52% 29.57 in 10.0 mi SSW 4.6 mph - N/A   Clear
11:53 AM 66.2 °F 48.2 °F 52% 29.56 in 10.0 mi SSW 4.6 mph - N/A   Clear
12:13 PM 68.0 °F 48.2 °F 49% 29.57 in 10.0 mi SSW 4.6 mph - N/A   Clear
12:33 PM 69.8 °F 48.2 °F 46% 29.58 in 10.0 mi Calm Calm - N/A   Clear
12:53 PM 69.8 °F 46.4 °F 43% 29.58 in 10.0 mi SSW 5.8 mph - N/A   Clear
1:13 PM 71.6 °F 48.2 °F 43% 29.57 in 10.0 mi South 6.9 mph - N/A   Clear
1:33 PM 71.6 °F 48.2 °F 43% 29.56 in 10.0 mi SSW 3.5 mph - N/A   Clear
1:53 PM 71.6 °F 48.2 °F 43% 29.56 in 10.0 mi SSW 3.5 mph - N/A   Clear
2:13 PM 71.6 °F 46.4 °F 41% 29.55 in 10.0 mi SSE 5.8 mph - N/A   Clear
2:32 PM 73.4 °F 50.0 °F 44% 29.55 in 10.0 mi South 6.9 mph - N/A   Clear
2:53 PM 73.4 °F 46.4 °F 38% 29.54 in 10.0 mi South 4.6 mph - N/A   Clear
3:13 PM 75.2 °F 46.4 °F 36% 29.54 in 10.0 mi SSW 5.8 mph - N/A   Clear
3:32 PM 75.2 °F 48.2 °F 38% 29.53 in 10.0 mi South 4.6 mph - N/A   Clear
3:53 PM 75.2 °F 46.4 °F 36% 29.52 in 10.0 mi South 5.8 mph - N/A   Clear
4:13 PM 75.2 °F 44.6 °F 34% 29.52 in 10.0 mi SSW 6.9 mph - N/A   Clear
4:32 PM 75.2 °F 46.4 °F 36% 29.52 in 10.0 mi South 5.8 mph - N/A   Clear
4:53 PM 75.2 °F 46.4 °F 36% 29.52 in 10.0 mi South 6.9 mph - N/A   Clear
5:13 PM 75.2 °F 46.4 °F 36% 29.52 in 10.0 mi South 5.8 mph - N/A   Clear
5:32 PM 73.4 °F 48.2 °F 41% 29.52 in 10.0 mi SSE 6.9 mph - N/A   Clear
5:53 PM 73.4 °F 48.2 °F 41% 29.52 in 10.0 mi SE 5.8 mph - N/A   Clear
6:13 PM 73.4 °F 48.2 °F 41% 29.52 in 10.0 mi SE 5.8 mph - N/A   Clear
6:32 PM 71.6 °F 48.2 °F 43% 29.53 in 10.0 mi SE 5.8 mph - N/A   Clear
6:53 PM 69.8 °F 50.0 °F 49% 29.53 in 10.0 mi SE 6.9 mph - N/A   Clear
7:13 PM 69.8 °F 48.2 °F 46% 29.53 in 10.0 mi SE 5.8 mph - N/A   Clear
7:33 PM 69.8 °F 48.2 °F 46% 29.53 in 10.0 mi ESE 5.8 mph - N/A   Clear
7:53 PM 69.8 °F 48.2 °F 46% 29.53 in 10.0 mi ESE 6.9 mph - N/A   Clear
8:13 PM 69.8 °F 50.0 °F 49% 29.53 in 10.0 mi ESE 6.9 mph - N/A   Clear
8:33 PM 68.0 °F 50.0 °F 52% 29.53 in 10.0 mi ESE 6.9 mph - N/A   Clear
8:53 PM 68.0 °F 50.0 °F 52% 29.53 in 10.0 mi ESE 8.1 mph - N/A   Clear
9:13 PM 68.0 °F 50.0 °F 52% 29.53 in 10.0 mi ESE 6.9 mph - N/A   Clear
9:33 PM 69.8 °F 50.0 °F 49% 29.52 in 10.0 mi ESE 8.1 mph - N/A   Clear
9:53 PM 69.8 °F 48.2 °F 46% 29.51 in 10.0 mi SE 8.1 mph - N/A   Clear
10:13 PM 69.8 °F 50.0 °F 49% 29.51 in 10.0 mi SE 9.2 mph - N/A   Clear
10:33 PM 66.2 °F 50.0 °F 56% 29.51 in 10.0 mi SE 6.9 mph - N/A   Clear
10:53 PM 66.2 °F 50.0 °F 56% 29.50 in 10.0 mi SE 6.9 mph - N/A   Clear
11:13 PM 66.2 °F 50.0 °F 56% 29.51 in 10.0 mi SSE 8.1 mph - N/A   Clear
11:33 PM 66.2 °F 50.0 °F 56% 29.51 in 10.0 mi SSE 8.1 mph - N/A   Clear
11:53 PM 66.2 °F 48.2 °F 52% 29.50 in 10.0 mi SSE 8.1 mph - N/A   Mostly Cloudy